| time (UTC) | temp F | wind direction | speed MPH | gust MPH | rain 1hr in | rain 24hr in | rain mn in | humidity % | barometer mb |
| 20260505021444 | 74 | 127 | 3.0 | 9.0 | 0.00 | 0.00 | 0.00 | 27 | 1008.1 |
| 20260505015946 | 75 | 118 | 3.0 | 8.0 | 0.00 | 0.00 | 0.00 | 27 | 1008.0 |
| 20260505014443 | 75 | 46 | 4.0 | 12.0 | 0.00 | 0.00 | 0.00 | 26 | 1007.9 |
| 20260505012944 | 75 | 110 | 2.0 | 10.0 | 0.00 | 0.00 | 0.00 | 26 | 1008.1 |
| 20260505011446 | 76 | 75 | 3.0 | 11.0 | 0.00 | 0.00 | 0.00 | 26 | 1008.2 |
| 20260505005945 | 76 | 79 | 4.0 | 10.0 | 0.00 | 0.00 | 0.00 | 27 | 1008.0 |
| 20260505004445 | 76 | 84 | 5.0 | 12.0 | 0.00 | 0.00 | 0.00 | 26 | 1008.1 |
| 20260505002944 | 77 | 125 | 5.0 | 14.0 | 0.00 | 0.00 | 0.00 | 26 | 1008.1 |
| 20260505001446 | 77 | 193 | 3.0 | 7.0 | 0.00 | 0.00 | 0.00 | 27 | 1008.1 |
| 20260504235946 | 78 | 23 | 4.0 | 8.0 | 0.00 | 0.00 | 0.00 | 26 | 1008.1 |
| 20260504234445 | 77 | 115 | 1.0 | 9.0 | 0.00 | 0.00 | 0.00 | 27 | 1008.1 |
| 20260504232944 | 77 | 212 | 3.0 | 9.0 | 0.00 | 0.00 | 0.00 | 26 | 1008.0 |
| 20260504231444 | 78 | 213 | 2.0 | 8.0 | 0.00 | 0.00 | 0.00 | 25 | 1008.0 |
| 20260504225945 | 79 | 66 | 2.0 | 5.0 | 0.00 | 0.00 | 0.00 | 26 | 1008.2 |
| 20260504224445 | 77 | 113 | 3.0 | 12.0 | 0.00 | 0.00 | 0.00 | 27 | 1008.3 |
| 20260504222946 | 77 | 44 | 5.0 | 12.0 | 0.00 | 0.00 | 0.00 | 27 | 1008.5 |
| 20260504221443 | 79 | 114 | 4.0 | 10.0 | 0.00 | 0.00 | 0.00 | 26 | 1008.3 |
| 20260504215945 | 78 | 58 | 2.0 | 5.0 | 0.00 | 0.00 | 0.00 | 28 | 1008.5 |
| 20260504214445 | 78 | 58 | 3.0 | 8.0 | 0.00 | 0.00 | 0.00 | 27 | 1008.5 |
| 20260504212947 | 78 | 43 | 3.0 | 6.0 | 0.00 | 0.00 | 0.00 | 26 | 1008.7 |
| 20260504211446 | 78 | 35 | 3.0 | 7.0 | 0.00 | 0.00 | 0.00 | 28 | 1008.9 |
| 20260504205946 | 77 | 47 | 2.0 | 7.0 | 0.00 | 0.00 | 0.00 | 29 | 1008.8 |
| 20260504204445 | 77 | 137 | 2.0 | 11.0 | 0.00 | 0.00 | 0.00 | 28 | 1008.9 |
| 20260504202945 | 77 | 130 | 3.0 | 8.0 | 0.00 | 0.00 | 0.00 | 27 | 1008.9 |
| 20260504201446 | 77 | 83 | 2.0 | 8.0 | 0.00 | 0.00 | 0.00 | 29 | 1009.0 |
| 20260504195946 | 76 | 143 | 2.0 | 7.0 | 0.00 | 0.00 | 0.00 | 29 | 1009.0 |
| 20260504194445 | 76 | 12 | 3.0 | 10.0 | 0.00 | 0.00 | 0.00 | 31 | 1009.0 |
| 20260504192947 | 74 | 58 | 4.0 | 10.0 | 0.00 | 0.00 | 0.00 | 32 | 1009.1 |
| 20260504191447 | 75 | 148 | 3.0 | 7.0 | 0.00 | 0.00 | 0.00 | 32 | 1009.4 |
| 20260504185947 | 74 | 120 | 4.0 | 9.0 | 0.00 | 0.00 | 0.00 | 32 | 1009.5 |
| 20260504184446 | 74 | 42 | 3.0 | 6.0 | 0.00 | 0.00 | 0.00 | 33 | 1009.7 |
| 20260504182944 | 73 | 50 | 4.0 | 10.0 | 0.00 | 0.00 | 0.00 | 32 | 1009.6 |
| 20260504181446 | 72 | 146 | 3.0 | 10.0 | 0.00 | 0.00 | 0.00 | 36 | 1009.6 |
| 20260504175948 | 71 | 58 | 3.0 | 11.0 | 0.00 | 0.00 | 0.00 | 35 | 1009.7 |
| 20260504174448 | 71 | 351 | 2.0 | 7.0 | 0.00 | 0.00 | 0.00 | 36 | 1009.6 |
| 20260504172945 | 70 | 49 | 2.0 | 7.0 | 0.00 | 0.00 | 0.00 | 37 | 1009.7 |
| 20260504171446 | 69 | 47 | 3.0 | 9.0 | 0.00 | 0.00 | 0.00 | 42 | 1009.7 |
| 20260504081447 | 50 | 160 | 0.0 | 0.0 | 0.00 | 0.00 | 0.00 | 76 | 1008.7 |
| 20260504045949 | 57 | 141 | 0.0 | 0.0 | 0.00 | 0.00 | 0.00 | 64 | 1009.0 |
| 20260504044449 | 58 | 141 | 0.0 | 0.0 | 0.00 | 0.00 | 0.00 | 62 | 1009.1 |
| 20260504042949 | 58 | 141 | 0.0 | 0.0 | 0.00 | 0.00 | 0.00 | 62 | 1009.1 |
| 20260504041449 | 60 | 176 | 0.0 | 0.0 | 0.00 | 0.00 | 0.00 | 60 | 1009.0 |
| 20260504035949 | 61 | 176 | 0.0 | 0.0 | 0.00 | 0.00 | 0.00 | 57 | 1009.1 |
| 20260504034447 | 63 | 176 | 0.0 | 0.0 | 0.00 | 0.00 | 0.00 | 54 | 1009.0 |
| 20260504032947 | 65 | 176 | 0.0 | 0.0 | 0.00 | 0.00 | 0.00 | 52 | 1008.8 |
| 20260504031446 | 67 | 177 | 0.0 | 0.0 | 0.00 | 0.00 | 0.00 | 46 | 1008.8 |
| 20260504025947 | 70 | 176 | 0.0 | 1.0 | 0.00 | 0.00 | 0.00 | 40 | 1008.8 |
| 20260504024451 | 73 | 323 | 0.0 | 0.0 | 0.00 | 0.00 | 0.00 | 36 | 1008.8 |
| 20260504022948 | 79 | 324 | 0.0 | 0.0 | 0.00 | 0.00 | 0.00 | 31 | 1008.8 |